Regional Weather Roundup
Issued by NWS

Home | Current Version | Previous Version | Graphics & Text | Print | Product List | Glossary On
Versions: 1 2 3 4 5 6 7 8 9 10 11 12 13 14 15 16 17 18 19 20 21 22 23 24 25 26 27 28 29 30 31 32 33 34 35 36 37 38 39 40 41 42 43 44 45 46 47 48 49 50
000
ASUS43 KLSX 030057
RWRMO

WEATHER SUMMARY FOR MISSOURI
NATIONAL WEATHER SERVICE SPRINGFIELD MO
800 PM CDT MON MAY 02 2016

NOTE: "FAIR" INDICATES FEW OR NO CLOUDS BELOW 12,000 FEET WITH NO
       SIGNIFICANT WEATHER AND/OR OBSTRUCTIONS TO VISIBILITY.
       CURRENT SKY AND/OR WEATHER CONDITIONS ARE NOT AVAILABLE FOR
       CHILLICOTHE AND FARMINGTON.

MOZ001>031-035>038-043-044-053-054-030200-
...NORTHERN AND WESTERN MISSOURI...

CITY           SKY/WX    TMP DP  RH WIND       PRES   REMARKS
KANSAS CTY INT PTCLDY    54  46  74 SW3       30.06S
LEE`S SUMMIT   CLOUDY    54  47  77 W5        30.07S
ST JOSEPH      PTCLDY    56  47  71 SW5       30.05F
CHILLICOTHE      N/A     56  49  77 SE5       30.06S

$$
MOZ066>068-077>081-088>096-101>105-030200-
...SOUTHWEST MISSOURI...

CITY           SKY/WX    TMP DP  RH WIND       PRES   REMARKS
SPRINGFIELD    CLOUDY    52  45  77 NW5       30.05S
JOPLIN         CLOUDY    52  48  86 CALM      30.07F
BRANSON        CLOUDY    52  46  82 CALM      30.06R

$$
MOZ032>034-039>042-045>050-055>058-069>072-030200-
...CENTRAL MISSOURI...

CITY           SKY/WX    TMP DP  RH WIND       PRES   REMARKS
COLUMBIA       LGT RAIN  52  48  87 NW9       30.05S FOG
JEFFERSON CITY CLOUDY    53  48  83 NW7       30.04F
ROLLA          CLOUDY    50  47  89 NW5       30.02S
SEDALIA        CLOUDY    53  48  83 NW3       30.07S

$$
MOZ051-052-059>065-030200-
...EAST CENTRAL MISSOURI...

CITY           SKY/WX    TMP DP  RH WIND       PRES   REMARKS
ST LOUIS INTL  CLOUDY    56  48  74 NW5       30.02S

$$
MOZ072>076-082>087-097>100-106>115-030200-
...SOUTH CENTRAL AND SOUTHEAST MISSOURI...

CITY           SKY/WX    TMP DP  RH WIND       PRES   REMARKS
CAPE GIRARDEAU CLOUDY    59  48  67 N8        29.97S
FARMINGTON     MOCLDY    55  46  71 N8        30.01R
POPLAR BLUFF   CLOUDY    61  50  67 N9        29.97R
WEST PLAINS    CLOUDY    54  45  71 NW12      30.03R

$$



USA.gov is the U.S. government's official web portal to all federal, state and local government web resources and services.